[[{"header":{"parameterUnit":"m.s-1","parameterCategory":1,"la1":30.2991,"la2":30.254,"lo1":-89.0895,"lo2":-89.0444,"dy":0.0017,"dx":0.0017,"nx":28,"ny":28,"refTime":"2024-04-06T09:00:00:Z","depth":0,"parameterNumber":2,"parameterNumberName":"U-component_of_WINDS"},"data":[0,0,0,0,0,0,0,0,0,0,0,0,0,0,0,0,0,0,0,0,0,0,0,0,0,0,0,0,0,0,0,0,0,0,0,0,0,0,0,0,0,0,0,0,0,0,0,0,0,0,0,0,0,0,0,0,0,0,-4.7175,-4.7175,0,-4.7167,-4.7167,-4.7167,-4.7025,-4.7021,-4.7017,-4.7014,-4.7007,-4.701,-4.7013,0,0,0,0,0,0,0,0,0,0,0,0,0,-4.7073,-4.7075,-4.7175,-4.7175,-4.7175,-4.7167,-4.7167,-4.7167,-4.7025,-4.7021,-4.7016,-4.7012,-4.7006,-4.701,-4.7013,0,0,0,0,0,0,0,0,0,0,0,0,0,-4.7096,-4.7076,-4.7175,-4.7104,-4.7097,-4.7167,-4.7167,-4.7167,-4.7026,-4.7021,-4.7015,-4.701,-4.7005,-4.7009,-4.7014,-4.7152,0,0,-4.7029,-4.7031,0,0,0,0,0,0,0,0,-4.7095,-4.71,-4.7114,-4.7109,-4.7102,-4.7091,-4.7128,-4.7162,-4.7028,-4.7053,-4.7014,-4.7008,-4.704,-4.7041,-4.7051,-4.7152,-4.7152,-4.7029,-4.7032,-4.7034,-4.7035,0,0,0,0,0,0,0,-4.7094,-4.71,-4.7172,-4.7115,-4.7107,-4.7073,-4.707,-4.7134,-4.7077,-4.7051,-4.704,-4.7041,-4.7035,-4.7047,-4.705,-4.7151,-4.7029,-4.7033,-4.7036,-4.7038,-4.7367,-4.7372,0,0,0,0,0,0,-4.7102,-4.7099,-4.7172,-4.7172,-4.7085,-4.7079,-4.7076,-4.71,-4.7076,-4.7067,-4.7046,-4.7035,-4.7042,-4.7045,-4.7049,-4.7209,-4.7034,-4.7038,-4.7041,-4.7361,-4.7368,-4.7374,0,0,0,0,0,0,-4.71,-4.7109,-4.7173,-4.7133,-4.7138,-4.7087,-4.7115,-4.7103,-4.7114,-4.7072,-4.7062,-4.7068,-4.7037,-4.7043,-4.7128,-4.7207,-4.7041,-4.7045,-4.7354,-4.7363,-4.7371,-4.7531,0,0,0,0,0,0,-4.7098,-4.711,-4.7161,-4.7135,-4.7141,-4.7251,-4.712,-4.7107,-4.7123,-4.7108,-4.7091,-4.7082,-4.7034,-4.7122,-4.7133,-4.7211,-4.7049,-4.7346,-4.7358,-4.7368,-4.7519,-4.7544,-4.7567,0,0,0,0,0,-4.7094,-4.7206,-4.7164,-4.7173,-4.7203,-4.7255,-4.7259,-4.72,-4.713,-4.7181,-4.7155,-4.7083,-4.7198,-4.7131,-4.7143,-4.7224,-4.7341,-4.7355,-4.7368,-4.7508,-4.7539,-4.7566,0,0,0,0,0,0,-4.7242,-4.7201,-4.7154,-4.726,-4.7263,-4.7231,-4.7293,-4.7235,-4.7257,-4.7242,-4.7169,-4.7166,-4.7263,-4.7252,-4.7179,-4.7357,-4.7257,-4.7273,-4.736,-4.7389,-4.7413,-4.7412,-4.7053,0,0,0,0,0,-4.7287,-4.7332,-4.7294,-4.7392,-4.7396,-4.7345,-4.7366,-4.732,-4.732,-4.732,-4.7299,-4.7302,-4.7338,-4.7364,-4.7395,-4.7518,-4.7512,-4.7579,-4.7603,-4.7623,-4.7637,-4.7702,-4.7731,-4.7418,-4.7418,-4.7417,0,0,-4.738,-4.7363,-4.7396,-4.7421,-4.7417,-4.7466,-4.7347,-4.7403,-4.7439,-4.7328,-4.7407,-4.7393,-4.7391,-4.7496,-4.7541,-4.749,-4.7723,-4.764,-4.7656,-4.7659,-4.7719,-4.7748,-4.7775,-4.7427,-4.7425,-4.7424,0,0,-4.7574,-4.7566,-4.7647,-4.7646,-4.7642,-4.7609,-4.7629,-4.7607,-4.7593,-4.7672,-4.759,-4.7633,-4.7697,-4.77,-4.7709,-4.7909,-4.7844,-4.7922,-4.8046,-4.811,-4.8135,-4.8156,-4.8227,-4.8253,-4.7937,-4.7937,-4.7937,0,-4.769,-4.7759,-4.7696,-4.7758,-4.7772,-4.7676,-4.7757,-4.776,-4.7767,-4.778,-4.7723,-4.7803,-4.7795,-4.7899,-4.7948,-4.796,-4.7981,-4.7922,-4.8136,-4.8157,-4.8176,-4.8243,-4.827,-4.7946,-4.7945,-4.7944,-4.7943,0,-4.7902,-4.7952,-4.8018,-4.8027,-4.8049,-4.8121,-4.807,-4.81,-4.8055,-4.8028,-4.811,-4.8098,-4.8125,-4.8148,-4.8103,-4.8247,-4.8215,-4.8149,-4.8046,-4.8217,-4.8278,-4.8303,-4.796,-4.7956,-4.7954,-4.7951,0,0,-4.8183,-4.816,-4.8185,-4.8188,-4.8179,-4.8217,-4.8286,-4.8313,-4.834,-4.8351,-4.8406,-4.8465,-4.8404,-4.8416,-4.8372,-4.8429,-4.8588,-4.8355,-4.8354,-4.8398,-4.8745,-4.8793,-4.8824,-4.8546,-4.8551,-4.8555,-4.8745,0,-4.837,-4.8484,-4.8431,-4.8552,-4.8598,-4.851,-4.857,-4.8572,-4.855,-4.8587,-4.8563,-4.8605,-4.8522,-4.8529,-4.8581,-4.8557,-4.8656,-4.8543,-4.8598,-4.86,-4.8598,-4.8856,-4.8906,-4.9086,-4.8768,-4.8772,-4.8775,0,-4.86,-4.862,-4.8746,-4.873,-4.8747,-4.8802,-4.8824,-4.886,-4.8862,-4.8842,-4.8857,-4.8801,-4.8869,-4.8771,-4.8864,-4.8788,-4.8808,-4.8801,-4.8806,-4.8807,-4.8696,-4.8862,-4.9142,-4.9168,-4.8813,-4.881,-4.8807,0,-4.8792,-4.885,-4.8933,-4.8939,-4.8923,-4.8964,-4.896,-4.8956,-4.8976,-4.8996,-4.9009,-4.9038,-4.9053,-4.9077,-4.9031,-4.8963,-4.9131,-4.9028,-4.9116,-4.9118,-4.9152,-4.915,-4.9438,-4.917,-4.917,-4.9169,-4.9169,0,-4.9003,-4.9083,-4.9019,-4.9069,-4.9158,-4.9098,-4.9187,-4.9173,-4.9171,-4.9218,-4.9145,-4.9192,-4.9129,-4.917,-4.9135,-4.9218,-4.9226,-4.9212,-4.9201,-4.9217,-4.9219,-4.9227,-4.9212,-4.9176,-4.9175,-4.9173,-4.9172,0,-4.923,-4.919,-4.9274,-4.9254,-4.925,-4.9316,-4.9299,-4.9346,-4.9321,-4.9382,-4.9393,-4.9353,-4.9398,-4.9356,-4.9398,-4.9375,-4.9485,-4.9458,-4.9484,-4.9476,-4.9566,-4.9557,-4.9866,-4.9904,-4.9615,-4.9617,-4.962,0,-4.9365,-4.9425,-4.9412,-4.9438,-4.9438,-4.9482,-4.9503,-4.9448,-4.9473,-4.9482,-4.9528,-4.9567,-4.9594,-4.9671,-4.9646,-4.9679,-4.965,-4.9757,-4.9654,-4.9669,-4.965,-4.9646,-4.9652,-4.9776,-4.978,-4.9783,-4.9785,0,-4.9611,-4.9589,-4.9621,-4.9649,-4.9676,-4.9695,-4.9708,-4.9735,-4.9678,-4.9711,-4.9756,-4.9778,-4.9822,-4.9862,-4.9888,-4.9884,-4.9826,-4.9818,-4.984,-4.9855,-4.9868,-4.9861,-4.9538,-4.981,-4.9808,-4.9806,-4.9805,-4.9803,-4.9794,-4.9844,-4.9842,-4.9882,-4.9887,-4.9902,-4.9945,-4.9926,-4.9963,-4.9994,-4.9961,-5.0016,-5.0019,-5.0047,-5.0052,-5.0095,-5.005,-5.0082,-5.009,-5.0098,-5.011,-4.9864,-5.01,-5.0099,-5.0098,-5.0098,-5.0097,0,-5.0034,-5.003,-5.0067,-5.0088,-5.0121,-5.0065,-5.0078,-5.0108,-5.0157,-5.0165,-5.0195,-5.0248,-5.0287,-5.0268,-5.0302,-5.034,-5.0315,-5.0351,-5.0346,-5.0346,-5.0149,-5.0126,-5.0371,-5.0371,-5.0371,-5.0371,-5.0371,-5.0371,-5.0162,-5.0243,-5.0222,-5.0305,-5.03,-5.0354,-5.0366,-5.038,-5.0386,-5.0448,-5.048,-5.0468,-5.0465,-5.05,-5.0534,-5.0527,-5.0542,-5.0588,-5.0572,-5.0387,-5.036,-5.0334,-5.0312,-5.0593,-5.0593,-5.0766,-5.0767,-5.0768]},{"header":{"parameterUnit":"m.s-1","parameterCategory":1,"la1":30.2991,"la2":30.254,"lo1":-89.0895,"lo2":-89.0444,"dy":0.0017,"dx":0.0017,"nx":28,"ny":28,"refTime":"2024-04-06T09:00:00:Z","depth":0,"parameterNumber":3,"parameterNumberName":"V-component_of_WINDS"},"data":[0,0,0,0,0,0,0,0,0,0,0,0,0,0,0,0,0,0,0,0,0,0,0,0,0,0,0,0,0,0,0,0,0,0,0,0,0,0,0,0,0,0,0,0,0,0,0,0,0,0,0,0,0,0,0,0,0,0,2.4066,2.4066,0,2.4055,2.4055,2.4055,2.4091,2.4092,2.4093,2.4094,2.4077,2.4075,2.4074,0,0,0,0,0,0,0,0,0,0,0,0,0,2.4115,2.4114,2.4066,2.4066,2.4066,2.4055,2.4055,2.4055,2.4091,2.4092,2.4093,2.4095,2.4077,2.4076,2.4074,0,0,0,0,0,0,0,0,0,0,0,0,0,2.4098,2.4114,2.4066,2.4083,2.4084,2.4055,2.4055,2.4055,2.409,2.4092,2.4094,2.4095,2.4078,2.4076,2.4074,2.4026,0,0,2.4067,2.4066,0,0,0,0,0,0,0,0,2.4099,2.4096,2.408,2.4082,2.4083,2.4076,2.4066,2.4045,2.409,2.4088,2.4094,2.4096,2.4075,2.4073,2.4067,2.4025,2.4025,2.4067,2.4065,2.4064,2.4064,0,0,0,0,0,0,0,2.41,2.4097,2.4062,2.408,2.4082,2.409,2.4089,2.4062,2.4072,2.4088,2.4091,2.4089,2.4076,2.4069,2.4067,2.4024,2.4067,2.4065,2.4063,2.4062,2.3945,2.3943,0,0,0,0,0,0,2.41,2.4097,2.4062,2.4061,2.4095,2.4087,2.4087,2.4077,2.4072,2.4073,2.4088,2.4091,2.4072,2.4069,2.4066,2.4011,2.4064,2.4062,2.4061,2.3947,2.3945,2.3943,0,0,0,0,0,0,2.4101,2.4096,2.4062,2.408,2.4076,2.4085,2.4073,2.4075,2.4069,2.4072,2.4074,2.4079,2.4073,2.407,2.4037,2.4011,2.4061,2.4059,2.3949,2.3946,2.3944,2.39,0,0,0,0,0,0,2.4102,2.4096,2.4079,2.408,2.4075,2.4033,2.4072,2.4074,2.4065,2.4069,2.4065,2.4065,2.4074,2.404,2.4034,2.4009,2.4057,2.3951,2.3948,2.3945,2.3904,2.3896,2.389,0,0,0,0,0,2.4104,2.4065,2.4078,2.4073,2.4054,2.4032,2.4029,2.4042,2.4063,2.4045,2.4048,2.4065,2.4016,2.4036,2.403,2.4004,2.3953,2.3949,2.3945,2.3907,2.3898,2.389,0,0,0,0,0,0,2.4059,2.4066,2.4079,2.4041,2.4036,2.4038,2.4016,2.4032,2.4019,2.4023,2.4038,2.4037,2.4001,2.4,2.4023,2.3959,2.3988,2.3982,2.3961,2.3952,2.3945,2.3946,2.4055,0,0,0,0,0,2.4045,2.4028,2.4034,2.4,2.3997,2.4007,2.3998,2.4009,2.4003,2.4,2.4001,2.3993,2.3977,2.3964,2.3949,2.3905,2.3904,2.3884,2.3877,2.3871,2.3866,2.3843,2.3834,2.393,2.393,2.393,0,0,2.4015,2.4017,2.4004,2.3991,2.3988,2.3969,2.4005,2.3982,2.3968,2.3996,2.3966,2.3966,2.3959,2.3921,2.3904,2.3918,2.384,2.3866,2.3862,2.3859,2.3838,2.3829,2.3821,2.3927,2.3928,2.3928,0,0,2.3951,2.3951,2.3922,2.392,2.3917,2.3924,2.3918,2.3918,2.392,2.3891,2.3912,2.3895,2.3865,2.386,2.3853,2.3791,2.3806,2.3785,2.3747,2.3725,2.3718,2.3711,2.3689,2.368,2.378,2.378,2.378,0,2.3913,2.3887,2.3905,2.3882,2.3876,2.3904,2.3875,2.3871,2.3862,2.3856,2.3873,2.3838,2.3835,2.3797,2.3782,2.3776,2.3768,2.3784,2.3718,2.3711,2.3705,2.3684,2.3676,2.3777,2.3778,2.3778,2.3778,0,2.3841,2.3822,2.38,2.3793,2.3784,2.3758,2.3772,2.3761,2.3773,2.3779,2.3749,2.3747,2.3732,2.3725,2.3735,2.3688,2.3697,2.3716,2.3744,2.3694,2.3674,2.3666,2.3774,2.3775,2.3775,2.3776,0,0,2.3744,2.3751,2.3743,2.3741,2.3741,2.3726,2.3702,2.369,2.368,2.3674,2.3654,2.3629,2.3648,2.364,2.3651,2.3632,2.3583,2.3654,2.3654,2.364,2.3531,2.3516,2.3506,2.3595,2.3593,2.3592,2.3531,0,2.3681,2.3642,2.3659,2.3617,2.36,2.3629,2.3608,2.3605,2.3611,2.3596,2.3602,2.3585,2.361,2.3606,2.3589,2.3593,2.3561,2.3598,2.3574,2.3573,2.3574,2.3495,2.3479,2.3421,2.3523,2.3522,2.3521,0,2.3601,2.3594,2.3552,2.3557,2.3551,2.3532,2.3523,2.351,2.3508,2.3513,2.3507,2.3523,2.3499,2.353,2.3497,2.3521,2.3513,2.3514,2.3512,2.3509,2.3543,2.3489,2.3403,2.3394,2.3509,2.351,2.3511,0,2.3535,2.3515,2.3487,2.3485,2.349,2.3477,2.3478,2.3478,2.347,2.3463,2.3458,2.3447,2.344,2.3431,2.3443,2.3465,2.3409,2.344,2.3411,2.3411,2.3396,2.3397,2.3307,2.3393,2.3394,2.3394,2.3394,0,2.3461,2.3434,2.3458,2.3441,2.3411,2.3432,2.3401,2.3406,2.3406,2.3389,2.3413,2.3397,2.3415,2.3401,2.341,2.3382,2.3379,2.3382,2.3384,2.3379,2.3378,2.3372,2.3376,2.3392,2.3392,2.3392,2.3393,0,2.3381,2.3396,2.3368,2.3377,2.3379,2.3356,2.3363,2.3347,2.3356,2.3335,2.3331,2.3344,2.3328,2.3341,2.3325,2.3331,2.3294,2.3302,2.3295,2.3297,2.3267,2.3269,2.3169,2.3156,2.3252,2.3251,2.325,0,2.3332,2.3312,2.332,2.3312,2.3313,2.3299,2.3292,2.3312,2.3304,2.3302,2.3286,2.3273,2.3264,2.3237,2.3244,2.3232,2.324,2.3206,2.3238,2.3234,2.3239,2.324,2.3238,2.3199,2.3198,2.3197,2.3196,0,2.3244,2.3254,2.3244,2.3237,2.323,2.3225,2.3222,2.3213,2.3234,2.3224,2.3209,2.3202,2.3188,2.3174,2.3166,2.3166,2.3184,2.3187,2.3179,2.3172,2.3168,2.317,2.3276,2.3188,2.3189,2.3189,2.319,2.319,2.3177,2.3162,2.3166,2.3154,2.3155,2.3153,2.3139,2.3147,2.3136,2.3127,2.314,2.3122,2.3122,2.3113,2.3111,2.3097,2.3111,2.31,2.3097,2.3094,2.309,2.3172,2.3096,2.3096,2.3096,2.3096,2.3097,0,2.309,2.3095,2.3085,2.3082,2.3073,2.3094,2.3093,2.3083,2.3068,2.3068,2.306,2.3044,2.3032,2.3039,2.3029,2.3016,2.3024,2.3012,2.3013,2.3012,2.3078,2.3085,2.3006,2.3006,2.3006,2.3006,2.3006,2.3006,2.3044,2.3018,2.3029,2.3004,2.3009,2.2993,2.2991,2.2989,2.2989,2.2971,2.2962,2.2968,2.2971,2.2961,2.2951,2.2954,2.2948,2.2933,2.2938,2.2999,2.3008,2.3016,2.3023,2.2932,2.2932,2.2874,2.2874,2.2873]}]]